This demonstration page uses our WeatherBlox Daily Observations layout. Learn more.

Left ArrowRight Arrow

39.51506, -84.39828

Hourly Observations for June 21, 2022

Temp ( °F °C ) Dew Point ( °F °C ) Humidity (%) Winds ( mph kmh ) Pressure ( in mb ) Visibility ( mi km ) Precip ( " mm )
12:15 am 00:15 Clear 62 16.4 61 16.3 99 99 Calm 30.16 1021 10 16 0.00 0.00
12:35 am 00:35 Clear 59 15 N/A N/A Calm 30.16 1021 10 16 0.00 0.00
12:55 am 00:55 Clear 59 15 N/A N/A Calm 30.16 1021 10 16 0.00 0.00
1:15 am 01:15 Clear 59 15 N/A N/A Calm 30.16 1021 10 16 0.00 0.00
1:35 am 01:35 Clear 57 14 N/A N/A Calm 30.15 1021 7 11 0.00 0.00
1:55 am 01:55 Clear 57 14 N/A N/A Calm 30.15 1021 7 11 0.00 0.00
2:15 am 02:15 Hazy 57 14 N/A N/A Calm 30.15 1021 5 8 0.00 0.00
2:35 am 02:35 Clear with Mist and Fog 57 14 N/A N/A Calm 30.14 1021 4 6 0.00 0.00
2:55 am 02:55 Clear with Mist and Fog 59 15 N/A N/A Calm 30.14 1021 3 5 0.00 0.00
3:15 am 03:15 Clear with Mist and Fog 57 14 N/A N/A Calm 30.14 1021 3 4 0.00 0.00
3:35 am 03:35 Mostly Cloudy with Mist and Fog 57 14 N/A N/A Calm 30.15 1021 1 1 0.00 0.00
3:55 am 03:55 Mostly Cloudy with Fog 57 14 N/A N/A Calm 30.15 1021 1 1 0.00 0.00
4:15 am 04:15 Mostly Cloudy with Mist and Fog 55 13 N/A N/A Calm 30.15 1021 1 1 0.00 0.00
4:35 am 04:35 Mostly Cloudy with Fog 55 13 N/A N/A Calm 30.16 1021 1 1 0.00 0.00
4:55 am 04:55 Clear with Mist and Fog 55 13 N/A N/A Calm 30.16 1021 4 6 0.00 0.00
5:15 am 05:15 Mostly Cloudy with Fog 55 13 N/A N/A Calm 30.17 1022 1 1 0.00 0.00
5:35 am 05:35 Clear 55 13 N/A N/A Calm 30.18 1022 7 11 0.00 0.00
5:55 am 05:55 Mostly Cloudy with Fog 52 11 N/A N/A WSW 3 6 30.20 1023 0 0 0.00 0.00
6:15 am 06:15 Mostly Cloudy with Fog 54 12 N/A N/A Calm 30.19 1022 1 1 0.00 0.00
6:35 am 06:35 Mostly Cloudy with Fog 54 12 N/A N/A Calm 30.20 1023 N/A 0.00 0.00
6:55 am 06:55 Hazy 55 13 N/A N/A Calm 30.20 1023 5 8 0.00 0.00
7:15 am 07:15 Hazy 55 13 N/A N/A Calm 30.21 1023 4 6 0.00 0.00
7:35 am 07:35 Sunny 59 15 N/A N/A Calm 30.21 1023 7 11 0.00 0.00
7:55 am 07:55 Hazy 61 16 N/A N/A Calm 30.20 1023 7 11 0.00 0.00
8:15 am 08:15 Sunny 63 17 N/A N/A SW 3 6 30.20 1023 10 16 0.00 0.00
8:35 am 08:35 Sunny 66 18.8 64 17.7 93 93 WSW 6 9 30.20 1023 7 11 0.00 0.00
8:55 am 08:55 Sunny 69 20.3 62 16.8 80 80 SW 6 9 30.20 1023 10 16 0.00 0.00
9:15 am 09:15 Sunny 72 22.1 61 15.9 68 68 SSW 5 7 30.20 1023 10 16 0.00 0.00
9:35 am 09:35 Sunny 74 23.2 58 14.2 57 57 S 6 9 30.20 1023 10 16 0.00 0.00
9:55 am 09:55 Sunny 75 23.9 59 14.9 57 57 SSW 6 9 30.20 1023 10 16 0.00 0.00
10:15 am 10:15 Sunny 77 25.1 58 14.3 51 51 SW 7 11 30.18 1022 10 16 0.00 0.00
10:35 am 10:35 Sunny 78 25.5 58 14.5 51 51 SSE 5 7 30.17 1022 10 16 0.00 0.00
10:55 am 10:55 Sunny 80 26.7 60 15.3 50 50 WSW 9 15 30.17 1022 10 16 0.00 0.00
11:15 am 11:15 Sunny 83 28.2 61 16.1 48 48 SSW 8 13 30.17 1022 10 16 0.00 0.00
11:35 am 11:35 Sunny 84 28.8 60 15.8 45 45 SSW 8 13 30.15 1021 10 16 0.00 0.00
11:55 am 11:55 Sunny 85 29.5 61 16.2 45 45 WSW 6 9 30.15 1021 10 16 0.00 0.00
12:15 pm 12:15 Sunny 87 30.3 61 16 42 42 WSW 7 11 30.14 1021 10 16 0.00 0.00
12:35 pm 12:35 Sunny 89 31.5 60 15.4 38 38 WSW 6 9 30.14 1021 10 16 0.00 0.00
12:55 pm 12:55 Sunny 88 31.3 58 14.5 36 36 WSW 9 15 30.14 1021 10 16 0.00 0.00
1:15 pm 13:15 Sunny 89 31.8 59 14.9 36 36 WSW 10 17 30.14 1021 10 16 0.00 0.00
1:35 pm 13:35 Sunny 90 32.1 60 15.8 37 37 W 10 17 30.13 1020 10 16 0.00 0.00
1:55 pm 13:55 Sunny 91 32.7 60 15.5 35 35 SSW 12 19 30.12 1020 10 16 0.00 0.00
2:15 pm 14:15 Sunny 92 33.2 58 14.5 32 32 WSW 10 17 30.11 1020 10 16 0.00 0.00
2:35 pm 14:35 Sunny 92 33.3 59 15.2 34 34 SW 9 15 30.11 1020 10 16 0.00 0.00
2:55 pm 14:55 Sunny 92 33.3 60 15.3 34 34 SSW 12 19 30.10 1019 10 16 0.00 0.00
3:15 pm 15:15 Sunny 93 33.9 58 14.5 31 31 WSW 14 22 30.09 1019 10 16 0.00 0.00
3:35 pm 15:35 Sunny 93 33.7 59 14.8 32 32 SW 12 19 30.09 1019 10 16 0.00 0.00
3:55 pm 15:55 Sunny 93 33.8 59 15 32 32 WSW 12 19 30.09 1019 10 16 0.00 0.00
4:15 pm 16:15 Sunny 94 34.6 60 15.8 32 32 W 9 15 30.08 1019 10 16 0.00 0.00
4:35 pm 16:35 Sunny 94 34.3 57 14.1 30 30 SW 13 20 30.07 1018 10 16 0.00 0.00
4:55 pm 16:55 Sunny 94 34.2 57 14 30 30 SW 14 22 30.06 1018 10 16 0.00 0.00
5:15 pm 17:15 Sunny 94 34.3 59 15.2 32 32 SW 12 19 30.06 1018 10 16 0.00 0.00
5:35 pm 17:35 Sunny 94 34.3 60 15.8 33 33 WSW 10 17 30.05 1018 10 16 0.00 0.00
5:55 pm 17:55 Sunny 93 34.1 57 14.1 30 30 SW 13 20 30.05 1018 10 16 0.00 0.00
6:15 pm 18:15 Sunny 93 34 59 15 32 32 SW 10 17 30.05 1018 10 16 0.00 0.00
6:35 pm 18:35 Hazy 92 33.6 60 15.5 34 34 WSW 13 20 30.04 1017 5 8 0.00 0.00
6:55 pm 18:55 Sunny 92 33.1 59 14.8 33 33 WSW 12 19 30.05 1017 10 16 0.00 0.00
7:15 pm 19:15 Sunny 91 32.7 59 14.8 34 34 SW 10 17 30.05 1017 10 16 0.00 0.00
7:35 pm 19:35 Sunny 90 32.1 59 15 36 36 SW 10 17 30.05 1018 10 16 0.00 0.00
7:55 pm 19:55 Sunny 89 31.5 60 15.4 38 38 SW 9 15 30.04 1017 10 16 0.00 0.00
8:15 pm 20:15 Sunny 86 30.2 61 16.3 43 43 SW 7 11 30.04 1017 10 16 0.00 0.00
8:35 pm 20:35 Sunny 85 29.3 61 16.1 45 45 SW 9 15 30.04 1017 10 16 0.00 0.00
8:55 pm 20:55 Sunny 82 27.6 61 16.3 50 50 SW 8 13 30.05 1018 10 16 0.00 0.00
9:15 pm 21:15 Clear 80 26.6 61 16.3 53 53 SW 6 9 30.05 1018 10 16 0.00 0.00
9:35 pm 21:35 Clear 79 26.2 62 16.4 55 55 SW 6 9 30.05 1018 10 16 0.00 0.00
9:55 pm 21:55 Clear 78 25.3 62 16.8 59 59 SW 6 9 30.05 1018 10 16 0.00 0.00
10:15 pm 22:15 Clear 75 23.9 62 16.9 65 65 SSW 6 9 30.06 1018 10 16 0.00 0.00
10:35 pm 22:35 Clear 76 24.2 62 16.7 63 63 Calm 30.05 1018 10 16 0.00 0.00
10:55 pm 22:55 Clear 73 22.8 65 18.1 75 75 Calm 30.06 1018 10 16 0.00 0.00
11:15 pm 23:15 Clear 69 20.3 67 19.7 96 96 Calm 30.06 1018 10 16 0.00 0.00
11:35 pm 23:35 Clear 67 19.5 66 18.9 96 96 SSW 3 6 30.07 1018 10 16 0.00 0.00
11:55 pm 23:55 Clear 67 19.6 66 19.1 97 97 Calm 30.08 1018 10 16 0.00 0.00

Powered by AerisWeather